World > North America > United States > California > Petaluma   City of Petaluma, CA

Petaluma, CA Hourly Weather Updates

Feedback E-mail the Weather

Quick Clicks

Petaluma, CA Weather Maps

°F °C°F °C
Petaluma Weather Map
UTC Time: 4/13/2024, 05:37
Your Time:

Petaluma, CA Regional Weather

Expires:202404130600;;653382
ASUS46 KSTO 130515
RWRCA 

NORTHERN AND CENTRAL CA REGIONAL WEATHER ROUNDUP
NATIONAL WEATHER SERVICE SACRAMENTO CA 
1000 PM PDT FRI APR 12 2024

NOTE: FAIR INDICATES FEW OR NO CLOUDS BELOW 12,000 FEET WITH NO
SIGNIFICANT WEATHER AND/OR OBSTRUCTIONS TO VISIBILITY.


CAZ006-505>513-130600-
BAY AREA
  
CITY           SKY/WX    TMP DP  RH WIND       PRES   REMARKS
SANTA ROSA     HVY RAIN  52  51  97 SE7       29.80S FOG              
SAN RAFAEL     N/A       53  MM  MM MISG
NAPA           MOCLDY    56  47  71 SW18G29   29.80R                  
CONCORD        PTCLDY    57  44  62 S16G22    29.80R                  
OAKLAND CITY   N/A       57  MM  MM MISG
OAKLAND        MOCLDY    56  48  74 S24       29.81S                  
SAN FRAN CITY  N/A       53  MM  76 MISG
SAN FRAN ARPT  MOCLDY    54  48  80 S9G22     29.81R                  
LIVERMORE      CLOUDY    56  44  64 SW14G22   29.81R                  
HAYWARD        CLOUDY    58  46  64 S13       29.80S                  
REDWOOD CITY   N/A       56  MM  67 MISG
MOFFETT ARPT   PTCLDY    57  45  62 S10G18    29.81R                  
SAN JOSE ARPT  MOCLDY    58  44  60 SE10G26   29.81R                  
$$

SKY/WX - Weather  TMP - Temperature  DP - Dew Point  RH - Humidity
WIND - Wind Direction/Speed PRES - Barometric Pressure VSB - Visibility
WCI - Wind Chill Index E13G22 Wind - East Wind 13 mph/Gusts of 22 mph

Trending Headlines

Trending Entertainment Headlines

Petaluma Radar Loop

Use the map search tool if you want to place a location marker on the radar map...

Petaluma Quick Facts

National Two Day Weather Forecast


E-mail the Petaluma Weather Forecast

Voice your opinion or tell us about page issues...